Tracking 25723 objects as of 27-Jun-2022
HD Live streaming from Space Station
objects crossing your sky now

STARLINK-1992

Track STARLINK-1992 now!
10-day predictions
STARLINK-1992 is classified as:


NORAD ID: 47632
Int'l Code: 2021-012N
Perigee: 553.4 km
Apogee: 555.4 km
Inclination: 53.1 °
Period: 95.6 minutes
Semi major axis: 6925 km
RCS: Unknown
Launch date: February 16, 2021
Source: United States (US)
Launch site: AIR FORCE EASTERN TEST RANGE (AFETR)
aabbcc
Your satellite tracking list
Your tracking list is empty




NASA's NSSDC Master Catalog

Two Line Element Set (TLE):
1 47632U 21012N   22177.59181437  .00000679  00000-0  64489-4 0  9992
2 47632  53.0545 286.4338 0001419  66.0907 294.0231 15.06394024 77507
Source of the keplerian elements: AFSPC